カタログに戻る

THORAD AGENA D DEB

運用中PO
NORAD 6216·DEBRIS·🇺🇸 United States

打ち上げ Apr 8, 1970 から Vandenberg Space Force Base

Loading…

次のパス (今後24時間)

TLE

最新Source: Space-Track

元期: Sep 14, 2026, 23:20 UTC

1 06216U 70025NE  26257.97262097  .00000719  00000-0  18498-3 0  9993
2 06216  98.9896 164.3794 0213211 166.9000 193.7848 14.40869278889006

AllMySatでTHORAD AGENA D DEBをリアルタイム追跡

Download on the App Store